Wetterdaten: Dienstag, 15.04.2014
Datum Zeit Temperatur Luftfeuchte Luftdruck Regen Wind Richtung Richtung Taupunkt Windchill Windben
15.04.2014 00:00 2,3 C 88 % 1019,0 hPa 0,0 l/m 0,0 km/h (0 Bft) SW 225 0,5 C 0,0 C 0,0 km/h (0 Bft)
15.04.2014 00:05 2,2 C 88 % 1019,1 hPa 0,0 l/m 0,0 km/h (0 Bft) SW 225 0,4 C 0,0 C 0,0 km/h (0 Bft)
15.04.2014 00:10 2,1 C 89 % 1019,1 hPa 0,0 l/m 0,0 km/h (0 Bft) SW 225 0,5 C 0,0 C 0,0 km/h (0 Bft)
15.04.2014 00:15 2,1 C 89 % 1019,1 hPa 0,0 l/m 0,0 km/h (0 Bft) SW 225 0,5 C 0,0 C 0,0 km/h (0 Bft)
15.04.2014 00:20 2,1 C 89 % 1019,1 hPa 0,0 l/m 0,0 km/h (0 Bft) SW 225 0,5 C 0,0 C 0,0 km/h (0 Bft)
15.04.2014 00:25 1,7 C 91 % 1019,1 hPa 0,0 l/m 0,0 km/h (0 Bft) SW 225 0,4 C 0,0 C 0,0 km/h (0 Bft)
15.04.2014 00:30 1,7 C 91 % 1019,2 hPa 0,0 l/m 0,0 km/h (0 Bft) SW 225 0,4 C 0,0 C 0,0 km/h (0 Bft)
15.04.2014 00:35 1,5 C 92 % 1019,2 hPa 0,0 l/m 0,0 km/h (0 Bft) SW 225 0,3 C 0,0 C 0,0 km/h (0 Bft)
15.04.2014 00:40 1,5 C 92 % 1019,2 hPa 0,0 l/m 0,0 km/h (0 Bft) SW 225 0,3 C 0,0 C 0,0 km/h (0 Bft)
15.04.2014 00:45 1,4 C 92 % 1019,2 hPa 0,0 l/m 0,0 km/h (0 Bft) SW 225 0,2 C 0,0 C 0,0 km/h (0 Bft)
15.04.2014 00:50 1,3 C 92 % 1019,1 hPa 0,0 l/m 0,0 km/h (0 Bft) SW 225 0,1 C 0,0 C 0,0 km/h (0 Bft)
15.04.2014 00:55 1,1 C 93 % 1019,1 hPa 0,0 l/m 0,0 km/h (0 Bft) SW 225 0,1 C 0,0 C 0,0 km/h (0 Bft)
15.04.2014 01:00 1,0 C 93 % 1019,1 hPa 0,0 l/m 0,0 km/h (0 Bft) SW 225 -0,0 C 0,0 C 0,0 km/h (0 Bft)
15.04.2014 01:03 0,9 C 93 % 1019,1 hPa 0,0 l/m 0,0 km/h (0 Bft) SW 225 -0,1 C 0,0 C 0,0 km/h (0 Bft)
15.04.2014 01:05 0,9 C 93 % 1018,8 hPa 0,0 l/m 0,0 km/h (0 Bft) SW 225 -0,1 C 0,0 C 0,0 km/h (0 Bft)
15.04.2014 01:10 0,9 C 94 % 1018,8 hPa 0,0 l/m 0,0 km/h (0 Bft) SW 225 0,0 C 0,0 C 0,0 km/h (0 Bft)
15.04.2014 01:15 1,0 C 94 % 1018,8 hPa 0,0 l/m 0,0 km/h (0 Bft) SW 225 0,1 C 0,0 C 0,0 km/h (0 Bft)
15.04.2014 01:20 1,1 C 94 % 1018,8 hPa 0,0 l/m 0,0 km/h (0 Bft) SW 225 0,2 C 0,0 C 0,0 km/h (0 Bft)
15.04.2014 01:25 1,2 C 94 % 1018,8 hPa 0,0 l/m 0,0 km/h (0 Bft) SW 225 0,3 C 0,0 C 0,0 km/h (0 Bft)
15.04.2014 01:30 1,3 C 94 % 1018,8 hPa 0,0 l/m 0,0 km/h (0 Bft) SW 225 0,4 C 0,0 C 0,0 km/h (0 Bft)
15.04.2014 01:35 1,5 C 94 % 1018,8 hPa 0,0 l/m 0,0 km/h (0 Bft) SW 225 0,6 C 0,0 C 0,0 km/h (0 Bft)
15.04.2014 01:40 1,7 C 94 % 1018,8 hPa 0,0 l/m 0,0 km/h (0 Bft) SW 225 0,8 C 0,0 C 0,0 km/h (0 Bft)
15.04.2014 01:45 1,7 C 94 % 1018,9 hPa 0,0 l/m 0,0 km/h (0 Bft) SW 225 0,8 C 0,0 C 0,0 km/h (0 Bft)
15.04.2014 01:50 1,7 C 94 % 1018,9 hPa 0,0 l/m 0,0 km/h (0 Bft) SW 225 0,8 C 0,0 C 0,0 km/h (0 Bft)
15.04.2014 01:55 1,7 C 94 % 1018,9 hPa 0,0 l/m 0,0 km/h (0 Bft) SW 225 0,8 C 0,0 C 0,0 km/h (0 Bft)
15.04.2014 02:00 1,8 C 94 % 1018,9 hPa 0,0 l/m 0,0 km/h (0 Bft) SW 225 0,9 C 0,0 C 0,0 km/h (0 Bft)
15.04.2014 02:05 1,9 C 94 % 1018,4 hPa 0,0 l/m 0,0 km/h (0 Bft) SW 225 1,0 C 0,0 C 0,0 km/h (0 Bft)
15.04.2014 02:10 1,9 C 94 % 1018,4 hPa 0,0 l/m 0,0 km/h (0 Bft) SW 225 1,0 C 0,0 C 0,0 km/h (0 Bft)
15.04.2014 02:15 1,9 C 94 % 1018,4 hPa 0,0 l/m 0,0 km/h (0 Bft) SW 225 1,0 C 0,0 C 0,0 km/h (0 Bft)
15.04.2014 02:20 1,9 C 95 % 1018,4 hPa 0,0 l/m 0,0 km/h (0 Bft) SW 225 1,2 C 0,0 C 0,0 km/h (0 Bft)
15.04.2014 02:25 1,7 C 95 % 1018,7 hPa 0,0 l/m 0,0 km/h (0 Bft) SW 225 1,0 C 0,0 C 0,0 km/h (0 Bft)
15.04.2014 02:30 1,7 C 94 % 1018,7 hPa 0,0 l/m 0,0 km/h (0 Bft) SW 225 0,8 C 0,0 C 0,0 km/h (0 Bft)
15.04.2014 02:35 1,7 C 95 % 1018,7 hPa 0,0 l/m 0,0 km/h (0 Bft) SW 225 1,0 C 0,0 C 0,0 km/h (0 Bft)
15.04.2014 02:40 1,7 C 95 % 1018,7 hPa 0,0 l/m 0,0 km/h (0 Bft) SW 225 1,0 C 0,0 C 0,0 km/h (0 Bft)
15.04.2014 02:45 1,7 C 95 % 1018,8 hPa 0,0 l/m 0,0 km/h (0 Bft) SW 225 1,0 C 0,0 C 0,0 km/h (0 Bft)
15.04.2014 02:50 1,5 C 95 % 1018,8 hPa 0,0 l/m 0,0 km/h (0 Bft) SW 225 0,8 C 0,0 C 0,0 km/h (0 Bft)
15.04.2014 02:55 1,4 C 95 % 1018,8 hPa 0,0 l/m 0,0 km/h (0 Bft) SW 225 0,7 C 0,0 C 0,0 km/h (0 Bft)
15.04.2014 03:00 1,1 C 95 % 1018,8 hPa 0,0 l/m 0,0 km/h (0 Bft) SW 225 0,4 C 0,0 C 0,0 km/h (0 Bft)
15.04.2014 03:05 0,7 C 95 % 1019,2 hPa 0,0 l/m 0,0 km/h (0 Bft) SW 225 -0,0 C 0,0 C 0,0 km/h (0 Bft)
15.04.2014 03:10 0,3 C 94 % 1019,2 hPa 0,0 l/m 0,0 km/h (0 Bft) SW 225 -0,5 C 0,0 C 0,0 km/h (0 Bft)
15.04.2014 03:15 0,2 C 94 % 1019,2 hPa 0,0 l/m 0,0 km/h (0 Bft) SW 225 -0,6 C 0,0 C 0,0 km/h (0 Bft)
15.04.2014 03:20 0,2 C 95 % 1019,2 hPa 0,0 l/m 0,0 km/h (0 Bft) SW 225 -0,5 C 0,0 C 0,0 km/h (0 Bft)
15.04.2014 03:25 0,1 C 95 % 1019,3 hPa 0,0 l/m 0,0 km/h (0 Bft) SW 225 -0,6 C 0,0 C 0,0 km/h (0 Bft)
15.04.2014 03:30 0,1 C 95 % 1019,3 hPa 0,0 l/m 0,0 km/h (0 Bft) SW 225 -0,6 C 0,0 C 0,0 km/h (0 Bft)
15.04.2014 03:35 0,1 C 95 % 1019,3 hPa 0,0 l/m 0,0 km/h (0 Bft) SW 225 -0,6 C 0,0 C 0,0 km/h (0 Bft)
15.04.2014 03:40 0,1 C 95 % 1019,3 hPa 0,0 l/m 0,0 km/h (0 Bft) SW 225 -0,6 C 0,0 C 0,0 km/h (0 Bft)
15.04.2014 03:45 0,1 C 95 % 1019,4 hPa 0,0 l/m 0,0 km/h (0 Bft) SW 225 -0,6 C 0,0 C 0,0 km/h (0 Bft)
15.04.2014 03:50 0,2 C 95 % 1019,4 hPa 0,0 l/m 0,0 km/h (0 Bft) SW 225 -0,5 C 0,0 C 0,0 km/h (0 Bft)
15.04.2014 03:55 0,2 C 95 % 1019,4 hPa 0,0 l/m 0,0 km/h (0 Bft) SW 225 -0,5 C 0,0 C 0,0 km/h (0 Bft)
15.04.2014 04:00 0,3 C 95 % 1019,4 hPa 0,0 l/m 0,0 km/h (0 Bft) SW 225 -0,4 C 0,0 C 0,0 km/h (0 Bft)
15.04.2014 04:05 0,3 C 95 % 1019,6 hPa 0,0 l/m 0,0 km/h (0 Bft) SW 225 -0,4 C 0,0 C 0,0 km/h (0 Bft)
15.04.2014 04:10 0,4 C 95 % 1019,6 hPa 0,0 l/m 0,0 km/h (0 Bft) SW 225 -0,3 C 0,0 C 0,0 km/h (0 Bft)
15.04.2014 04:15 0,4 C 95 % 1019,6 hPa 0,0 l/m 0,0 km/h (0 Bft) SW 225 -0,3 C 0,0 C 0,0 km/h (0 Bft)
15.04.2014 04:20 0,4 C 95 % 1019,6 hPa 0,0 l/m 0,0 km/h (0 Bft) SW 225 -0,3 C 0,0 C 0,0 km/h (0 Bft)
15.04.2014 04:25 0,4 C 95 % 1019,4 hPa 0,0 l/m 0,0 km/h (0 Bft) SW 225 -0,3 C 0,0 C 0,0 km/h (0 Bft)
15.04.2014 04:30 0,4 C 96 % 1019,4 hPa 0,0 l/m 0,0 km/h (0 Bft) SW 225 -0,2 C 0,0 C 0,0 km/h (0 Bft)
15.04.2014 04:35 0,3 C 96 % 1019,4 hPa 0,0 l/m 0,0 km/h (0 Bft) SW 225 -0,3 C 0,0 C 0,0 km/h (0 Bft)
15.04.2014 04:40 0,3 C 96 % 1019,4 hPa 0,0 l/m 0,0 km/h (0 Bft) SW 225 -0,3 C 0,0 C 0,0 km/h (0 Bft)
15.04.2014 04:45 0,3 C 96 % 1019,1 hPa 0,0 l/m 0,0 km/h (0 Bft) SW 225 -0,3 C 0,0 C 0,0 km/h (0 Bft)
15.04.2014 04:50 0,3 C 96 % 1019,1 hPa 0,0 l/m 0,0 km/h (0 Bft) SW 225 -0,3 C 0,0 C 0,0 km/h (0 Bft)
15.04.2014 04:55 0,3 C 96 % 1019,1 hPa 0,0 l/m 0,0 km/h (0 Bft) SW 225 -0,3 C 0,0 C 0,0 km/h (0 Bft)
15.04.2014 05:00 0,3 C 96 % 1019,1 hPa 0,0 l/m 0,0 km/h (0 Bft) SW 225 -0,3 C 0,0 C 0,0 km/h (0 Bft)
15.04.2014 05:05 0,3 C 96 % 1019,6 hPa 0,0 l/m 0,0 km/h (0 Bft) SW 225 -0,3 C 0,0 C 0,0 km/h (0 Bft)
15.04.2014 05:10 0,1 C 96 % 1019,6 hPa 0,0 l/m 0,0 km/h (0 Bft) SW 225 -0,5 C 0,0 C 0,0 km/h (0 Bft)
15.04.2014 05:15 0,1 C 96 % 1019,6 hPa 0,0 l/m 0,0 km/h (0 Bft) SW 225 -0,5 C 0,0 C 0,0 km/h (0 Bft)
15.04.2014 05:20 0,0 C 96 % 1019,6 hPa 0,0 l/m 0,0 km/h (0 Bft) SW 225 -0,6 C 0,0 C 0,0 km/h (0 Bft)
15.04.2014 05:25 0,0 C 95 % 1019,6 hPa 0,0 l/m 0,0 km/h (0 Bft) SW 225 -0,7 C 0,0 C 0,0 km/h (0 Bft)
15.04.2014 05:30 0,0 C 95 % 1019,8 hPa 0,0 l/m 0,0 km/h (0 Bft) SW 225 -0,7 C 0,0 C 0,0 km/h (0 Bft)
15.04.2014 05:35 -0,1 C 95 % 1019,8 hPa 0,0 l/m 0,0 km/h (0 Bft) SW 225 -0,8 C 0,0 C 0,0 km/h (0 Bft)
15.04.2014 05:40 -0,1 C 95 % 1019,8 hPa 0,0 l/m 0,0 km/h (0 Bft) SW 225 -0,8 C 0,0 C 0,0 km/h (0 Bft)
15.04.2014 05:45 -0,2 C 95 % 1019,8 hPa 0,0 l/m 0,0 km/h (0 Bft) SW 225 -0,9 C 0,0 C 0,0 km/h (0 Bft)
15.04.2014 05:50 -0,2 C 95 % 1019,8 hPa 0,0 l/m 0,0 km/h (0 Bft) SW 225 -0,9 C 0,0 C 0,0 km/h (0 Bft)
15.04.2014 05:55 -0,4 C 95 % 1019,8 hPa 0,0 l/m 0,0 km/h (0 Bft) SW 225 -1,1 C 0,0 C 0,0 km/h (0 Bft)
15.04.2014 06:00 -0,6 C 95 % 1019,8 hPa 0,0 l/m 0,0 km/h (0 Bft) SW 225 -1,3 C 0,0 C 0,0 km/h (0 Bft)
15.04.2014 06:04 -0,8 C 95 % 1019,8 hPa 0,0 l/m 0,0 km/h (0 Bft) SW 225 -1,5 C 0,0 C 0,0 km/h (0 Bft)
15.04.2014 06:05 -0,9 C 95 % 1020,1 hPa 0,0 l/m 0,0 km/h (0 Bft) SW 225 -1,6 C 0,0 C 0,0 km/h (0 Bft)
15.04.2014 06:10 -0,8 C 95 % 1020,1 hPa 0,0 l/m 0,0 km/h (0 Bft) SW 225 -1,5 C 0,0 C 0,0 km/h (0 Bft)
15.04.2014 06:15 -0,8 C 95 % 1020,1 hPa 0,0 l/m 0,0 km/h (0 Bft) SW 225 -1,5 C 0,0 C 0,0 km/h (0 Bft)
15.04.2014 06:20 -0,9 C 95 % 1020,1 hPa 0,0 l/m 0,0 km/h (0 Bft) SW 225 -1,6 C 0,0 C 0,0 km/h (0 Bft)
15.04.2014 06:25 -0,8 C 95 % 1019,9 hPa 0,0 l/m 0,0 km/h (0 Bft) SW 225 -1,5 C 0,0 C 0,0 km/h (0 Bft)
15.04.2014 06:30 -0,7 C 95 % 1019,9 hPa 0,0 l/m 0,0 km/h (0 Bft) SW 225 -1,4 C 0,0 C 0,0 km/h (0 Bft)
15.04.2014 06:35 -0,7 C 95 % 1019,9 hPa 0,0 l/m 0,0 km/h (0 Bft) SW 225 -1,4 C 0,0 C 0,0 km/h (0 Bft)
15.04.2014 06:40 -0,6 C 95 % 1019,9 hPa 0,0 l/m 0,0 km/h (0 Bft) SW 225 -1,3 C 0,0 C 0,0 km/h (0 Bft)
15.04.2014 06:45 -0,5 C 95 % 1020,2 hPa 0,0 l/m 0,0 km/h (0 Bft) SW 225 -1,2 C 0,0 C 0,0 km/h (0 Bft)
15.04.2014 06:50 -0,4 C 95 % 1020,2 hPa 0,0 l/m 0,0 km/h (0 Bft) SW 225 -1,1 C 0,0 C 0,0 km/h (0 Bft)
15.04.2014 06:55 -0,3 C 95 % 1020,2 hPa 0,0 l/m 0,0 km/h (0 Bft) SW 225 -1,0 C 0,0 C 0,0 km/h (0 Bft)
15.04.2014 07:00 -0,3 C 95 % 1020,2 hPa 0,0 l/m 0,0 km/h (0 Bft) SW 225 -1,0 C 0,0 C 0,0 km/h (0 Bft)
15.04.2014 07:05 -0,2 C 95 % 1020,6 hPa 0,0 l/m 0,0 km/h (0 Bft) SW 225 -0,9 C 0,0 C 0,0 km/h (0 Bft)
15.04.2014 07:10 -0,2 C 95 % 1020,6 hPa 0,0 l/m 0,0 km/h (0 Bft) SW 225 -0,9 C 0,0 C 0,0 km/h (0 Bft)
15.04.2014 07:15 -0,1 C 95 % 1020,6 hPa 0,0 l/m 0,0 km/h (0 Bft) SW 225 -0,8 C 0,0 C 0,0 km/h (0 Bft)
15.04.2014 07:20 0,0 C 95 % 1020,6 hPa 0,0 l/m 0,0 km/h (0 Bft) SW 225 -0,7 C 0,0 C 0,0 km/h (0 Bft)
15.04.2014 07:25 0,0 C 95 % 1020,8 hPa 0,0 l/m 0,0 km/h (0 Bft) SW 225 -0,7 C 0,0 C 0,0 km/h (0 Bft)
15.04.2014 07:30 0,1 C 95 % 1020,8 hPa 0,0 l/m 0,0 km/h (0 Bft) SW 225 -0,6 C 0,0 C 0,0 km/h (0 Bft)
15.04.2014 07:35 0,1 C 95 % 1020,8 hPa 0,0 l/m 0,0 km/h (0 Bft) SW 225 -0,6 C 0,0 C 0,0 km/h (0 Bft)
15.04.2014 07:40 0,2 C 95 % 1020,8 hPa 0,0 l/m 0,0 km/h (0 Bft) SW 225 -0,5 C 0,0 C 0,0 km/h (0 Bft)
15.04.2014 07:45 0,3 C 95 % 1020,8 hPa 0,0 l/m 0,0 km/h (0 Bft) SW 225 -0,4 C 0,0 C 0,0 km/h (0 Bft)
15.04.2014 07:50 0,4 C 95 % 1020,8 hPa 0,0 l/m 0,0 km/h (0 Bft) SW 225 -0,3 C 0,0 C 0,0 km/h (0 Bft)
15.04.2014 07:55 0,4 C 95 % 1020,8 hPa 0,0 l/m 0,0 km/h (0 Bft) SW 225 -0,3 C 0,0 C 0,0 km/h (0 Bft)
15.04.2014 08:00 0,5 C 95 % 1020,8 hPa 0,0 l/m 0,0 km/h (0 Bft) SW 225 -0,2 C 0,0 C 0,0 km/h (0 Bft)
15.04.2014 08:05 0,4 C 95 % 1021,1 hPa 0,0 l/m 0,0 km/h (0 Bft) SW 225 -0,3 C 0,0 C 0,0 km/h (0 Bft)
15.04.2014 08:10 0,4 C 95 % 1021,1 hPa 0,0 l/m 0,0 km/h (0 Bft) SW 225 -0,3 C 0,0 C 0,0 km/h (0 Bft)
15.04.2014 08:15 0,4 C 95 % 1021,1 hPa 0,0 l/m 0,0 km/h (0 Bft) SW 225 -0,3 C 0,0 C 0,0 km/h (0 Bft)
15.04.2014 08:20 0,5 C 94 % 1021,1 hPa 0,0 l/m 0,0 km/h (0 Bft) SW 225 -0,4 C 0,0 C 0,0 km/h (0 Bft)
15.04.2014 08:25 0,5 C 94 % 1021,4 hPa 0,0 l/m 0,0 km/h (0 Bft) SW 225 -0,4 C 0,0 C 0,0 km/h (0 Bft)
15.04.2014 08:30 0,5 C 94 % 1021,4 hPa 0,0 l/m 0,0 km/h (0 Bft) SW 225 -0,4 C 0,0 C 0,0 km/h (0 Bft)
15.04.2014 08:35 0,6 C 94 % 1021,4 hPa 0,0 l/m 0,0 km/h (0 Bft) SW 225 -0,3 C 0,0 C 0,0 km/h (0 Bft)
15.04.2014 08:40 0,6 C 93 % 1021,4 hPa 0,0 l/m 0,0 km/h (0 Bft) SW 225 -0,4 C 0,0 C 0,0 km/h (0 Bft)
15.04.2014 08:45 0,6 C 93 % 1021,4 hPa 0,0 l/m 0,0 km/h (0 Bft) SW 225 -0,4 C 0,0 C 0,0 km/h (0 Bft)
15.04.2014 08:50 0,6 C 93 % 1021,4 hPa 0,0 l/m 0,0 km/h (0 Bft) SW 225 -0,4 C 0,0 C 0,0 km/h (0 Bft)
15.04.2014 08:55 0,6 C 93 % 1021,4 hPa 0,0 l/m 0,0 km/h (0 Bft) SW 225 -0,4 C 0,0 C 0,0 km/h (0 Bft)
15.04.2014 09:00 0,6 C 93 % 1021,4 hPa 0,0 l/m 0,0 km/h (0 Bft) SW 225 -0,4 C 0,0 C 0,0 km/h (0 Bft)
15.04.2014 09:05 0,7 C 93 % 1021,4 hPa 0,0 l/m 0,0 km/h (0 Bft) SW 225 -0,3 C 0,0 C 0,0 km/h (0 Bft)
15.04.2014 09:10 0,8 C 93 % 1021,4 hPa 0,0 l/m 0,0 km/h (0 Bft) SW 225 -0,2 C 0,0 C 0,0 km/h (0 Bft)
15.04.2014 09:15 0,9 C 93 % 1021,4 hPa 0,0 l/m 0,0 km/h (0 Bft) SW 225 -0,1 C 0,0 C 0,0 km/h (0 Bft)
15.04.2014 09:20 1,0 C 93 % 1021,4 hPa 0,0 l/m 0,0 km/h (0 Bft) SW 225 -0,0 C 0,0 C 0,0 km/h (0 Bft)
15.04.2014 09:25 1,3 C 93 % 1021,7 hPa 0,0 l/m 0,0 km/h (0 Bft) SW 225 0,3 C 0,0 C 0,0 km/h (0 Bft)
15.04.2014 09:30 5,2 C 92 % 1021,7 hPa 0,0 l/m 0,0 km/h (0 Bft) SW 225 4,0 C 0,0 C 0,0 km/h (0 Bft)
15.04.2014 09:35 6,9 C 87 % 1021,7 hPa 0,0 l/m 0,0 km/h (0 Bft) SW 225 4,9 C 0,0 C 0,0 km/h (0 Bft)
15.04.2014 09:40 2,9 C 86 % 1021,7 hPa 0,0 l/m 0,0 km/h (0 Bft) SW 225 0,8 C 0,0 C 0,0 km/h (0 Bft)
15.04.2014 09:45 2,0 C 86 % 1022,1 hPa 0,0 l/m 0,0 km/h (0 Bft) SW 225 -0,1 C 0,0 C 0,0 km/h (0 Bft)
15.04.2014 09:50 1,5 C 88 % 1022,1 hPa 0,0 l/m 0,0 km/h (0 Bft) SW 225 -0,3 C 0,0 C 0,0 km/h (0 Bft)
15.04.2014 09:55 2,0 C 88 % 1022,1 hPa 0,0 l/m 0,0 km/h (0 Bft) SW 225 0,2 C 0,0 C 0,0 km/h (0 Bft)
15.04.2014 10:00 2,0 C 87 % 1022,1 hPa 0,0 l/m 0,0 km/h (0 Bft) SW 225 0,1 C 0,0 C 0,0 km/h (0 Bft)
15.04.2014 10:05 1,7 C 87 % 1022,2 hPa 0,0 l/m 0,0 km/h (0 Bft) SW 225 -0,2 C 0,0 C 0,0 km/h (0 Bft)
15.04.2014 10:10 1,7 C 87 % 1022,2 hPa 0,0 l/m 0,0 km/h (0 Bft) SW 225 -0,2 C 0,0 C 0,0 km/h (0 Bft)
15.04.2014 10:15 1,8 C 86 % 1022,2 hPa 0,0 l/m 0,0 km/h (0 Bft) SW 225 -0,3 C 0,0 C 0,0 km/h (0 Bft)
15.04.2014 10:20 1,8 C 87 % 1022,2 hPa 0,0 l/m 0,0 km/h (0 Bft) SW 225 -0,1 C 0,0 C 0,0 km/h (0 Bft)
15.04.2014 10:25 1,9 C 86 % 1022,2 hPa 0,0 l/m 0,0 km/h (0 Bft) SW 225 -0,2 C 0,0 C 0,0 km/h (0 Bft)
15.04.2014 10:30 2,6 C 85 % 1022,5 hPa 0,0 l/m 0,0 km/h (0 Bft) SW 225 0,3 C 0,0 C 0,0 km/h (0 Bft)
15.04.2014 10:35 2,7 C 85 % 1022,5 hPa 0,0 l/m 0,0 km/h (0 Bft) SW 225 0,4 C 0,0 C 0,0 km/h (0 Bft)
15.04.2014 10:40 2,6 C 84 % 1022,5 hPa 0,0 l/m 0,0 km/h (0 Bft) SW 225 0,2 C 0,0 C 0,0 km/h (0 Bft)
15.04.2014 10:45 2,2 C 84 % 1022,5 hPa 0,0 l/m 0,0 km/h (0 Bft) SW 225 -0,2 C 0,0 C 0,0 km/h (0 Bft)
15.04.2014 10:50 2,1 C 84 % 1022,6 hPa 0,0 l/m 0,0 km/h (0 Bft) SW 225 -0,3 C 0,0 C 0,0 km/h (0 Bft)
15.04.2014 10:55 2,1 C 82 % 1022,6 hPa 0,0 l/m 0,0 km/h (0 Bft) SW 225 -0,6 C 0,0 C 0,0 km/h (0 Bft)
15.04.2014 11:00 2,5 C 82 % 1022,6 hPa 0,0 l/m 0,0 km/h (0 Bft) SW 225 -0,3 C 0,0 C 0,0 km/h (0 Bft)
15.04.2014 11:03 2,8 C 78 % 1022,6 hPa 0,0 l/m 0,0 km/h (0 Bft) SW 225 -0,6 C 0,0 C 0,0 km/h (0 Bft)
15.04.2014 11:05 2,9 C 78 % 1022,6 hPa 0,0 l/m 0,0 km/h (0 Bft) SW 225 -0,5 C 0,0 C 0,0 km/h (0 Bft)
15.04.2014 11:10 3,3 C 75 % 1022,6 hPa 0,0 l/m 0,0 km/h (0 Bft) SW 225 -0,7 C 0,0 C 0,0 km/h (0 Bft)
15.04.2014 11:15 3,9 C 76 % 1022,6 hPa 0,0 l/m 0,0 km/h (0 Bft) SW 225 0,1 C 0,0 C 0,0 km/h (0 Bft)
15.04.2014 11:20 4,2 C 76 % 1022,6 hPa 0,0 l/m 0,0 km/h (0 Bft) SW 225 0,4 C 0,0 C 0,0 km/h (0 Bft)
15.04.2014 11:25 4,4 C 76 % 1022,8 hPa 0,0 l/m 0,0 km/h (0 Bft) SW 225 0,5 C 0,0 C 0,0 km/h (0 Bft)
15.04.2014 11:30 4,1 C 76 % 1022,8 hPa 0,0 l/m 0,0 km/h (0 Bft) SW 225 0,3 C 0,0 C 0,0 km/h (0 Bft)
15.04.2014 11:35 3,8 C 76 % 1022,8 hPa 0,0 l/m 0,0 km/h (0 Bft) SW 225 -0,0 C 0,0 C 0,0 km/h (0 Bft)
15.04.2014 11:40 4,2 C 76 % 1022,8 hPa 0,0 l/m 0,0 km/h (0 Bft) SW 225 0,4 C 0,0 C 0,0 km/h (0 Bft)
15.04.2014 11:45 4,0 C 75 % 1022,9 hPa 0,0 l/m 0,0 km/h (0 Bft) SW 225 -0,0 C 0,0 C 0,0 km/h (0 Bft)
15.04.2014 11:50 4,6 C 78 % 1022,9 hPa 0,0 l/m 0,0 km/h (0 Bft) SW 225 1,1 C 0,0 C 0,0 km/h (0 Bft)
15.04.2014 11:55 6,3 C 78 % 1022,9 hPa 0,0 l/m 0,0 km/h (0 Bft) SW 225 2,8 C 0,0 C 0,0 km/h (0 Bft)
15.04.2014 12:00 4,0 C 74 % 1022,9 hPa 0,0 l/m 0,0 km/h (0 Bft) SW 225 -0,2 C 0,0 C 0,0 km/h (0 Bft)
15.04.2014 12:05 3,3 C 74 % 1022,9 hPa 0,0 l/m 0,0 km/h (0 Bft) SW 225 -0,9 C 0,0 C 0,0 km/h (0 Bft)
15.04.2014 12:10 3,0 C 77 % 1022,9 hPa 0,0 l/m 0,0 km/h (0 Bft) SW 225 -0,6 C 0,0 C 0,0 km/h (0 Bft)
15.04.2014 12:15 3,7 C 79 % 1022,9 hPa 0,0 l/m 0,0 km/h (0 Bft) SW 225 0,4 C 0,0 C 0,0 km/h (0 Bft)
15.04.2014 12:20 3,9 C 79 % 1022,9 hPa 0,0 l/m 0,0 km/h (0 Bft) SW 225 0,6 C 0,0 C 0,0 km/h (0 Bft)
15.04.2014 12:25 3,7 C 79 % 1022,8 hPa 0,0 l/m 0,0 km/h (0 Bft) SW 225 0,4 C 0,0 C 0,0 km/h (0 Bft)
15.04.2014 12:30 3,8 C 80 % 1022,8 hPa 0,0 l/m 0,0 km/h (0 Bft) SW 225 0,7 C 0,0 C 0,0 km/h (0 Bft)
15.04.2014 12:35 3,3 C 79 % 1022,8 hPa 0,0 l/m 0,0 km/h (0 Bft) SW 225 0,0 C 0,0 C 0,0 km/h (0 Bft)
15.04.2014 12:40 3,0 C 78 % 1022,8 hPa 0,0 l/m 0,0 km/h (0 Bft) SW 225 -0,5 C 0,0 C 0,0 km/h (0 Bft)
15.04.2014 12:45 2,9 C 78 % 1022,4 hPa 0,0 l/m 0,0 km/h (0 Bft) SW 225 -0,5 C 0,0 C 0,0 km/h (0 Bft)
15.04.2014 12:50 3,3 C 78 % 1022,4 hPa 0,0 l/m 0,0 km/h (0 Bft) SW 225 -0,2 C 0,0 C 0,0 km/h (0 Bft)
15.04.2014 12:55 3,4 C 76 % 1022,4 hPa 0,0 l/m 0,0 km/h (0 Bft) SW 225 -0,4 C 0,0 C 0,0 km/h (0 Bft)
15.04.2014 13:00 3,4 C 75 % 1022,4 hPa 0,0 l/m 0,0 km/h (0 Bft) SW 225 -0,6 C 0,0 C 0,0 km/h (0 Bft)
15.04.2014 13:05 3,4 C 76 % 1022,9 hPa 0,0 l/m 0,0 km/h (0 Bft) SW 225 -0,4 C 0,0 C 0,0 km/h (0 Bft)
15.04.2014 13:10 3,6 C 78 % 1022,9 hPa 0,0 l/m 0,0 km/h (0 Bft) SW 225 0,1 C 0,0 C 0,0 km/h (0 Bft)
15.04.2014 13:15 3,6 C 77 % 1022,9 hPa 0,0 l/m 0,0 km/h (0 Bft) SW 225 -0,0 C 0,0 C 0,0 km/h (0 Bft)
15.04.2014 13:20 3,9 C 78 % 1022,9 hPa 0,0 l/m 0,0 km/h (0 Bft) SW 225 0,4 C 0,0 C 0,0 km/h (0 Bft)
15.04.2014 13:25 3,8 C 75 % 1022,9 hPa 0,0 l/m 0,0 km/h (0 Bft) SW 225 -0,2 C 0,0 C 0,0 km/h (0 Bft)
15.04.2014 13:30 3,8 C 77 % 1022,9 hPa 0,0 l/m 0,0 km/h (0 Bft) SW 225 0,1 C 0,0 C 0,0 km/h (0 Bft)
15.04.2014 13:35 3,6 C 75 % 1022,9 hPa 0,0 l/m 0,0 km/h (0 Bft) SW 225 -0,4 C 0,0 C 0,0 km/h (0 Bft)
15.04.2014 13:40 3,4 C 74 % 1022,9 hPa 0,0 l/m 0,0 km/h (0 Bft) SW 225 -0,8 C 0,0 C 0,0 km/h (0 Bft)
15.04.2014 13:45 3,5 C 76 % 1022,6 hPa 0,0 l/m 0,0 km/h (0 Bft) SW 225 -0,3 C 0,0 C 0,0 km/h (0 Bft)
15.04.2014 13:50 3,7 C 75 % 1022,6 hPa 0,0 l/m 0,0 km/h (0 Bft) SW 225 -0,3 C 0,0 C 0,0 km/h (0 Bft)
15.04.2014 13:55 3,7 C 73 % 1022,6 hPa 0,0 l/m 0,0 km/h (0 Bft) SW 225 -0,7 C 0,0 C 0,0 km/h (0 Bft)
15.04.2014 14:00 3,8 C 73 % 1022,6 hPa 0,0 l/m 0,0 km/h (0 Bft) SW 225 -0,6 C 0,0 C 0,0 km/h (0 Bft)
15.04.2014 14:05 3,9 C 73 % 1022,9 hPa 0,0 l/m 0,0 km/h (0 Bft) SW 225 -0,5 C 0,0 C 0,0 km/h (0 Bft)
15.04.2014 14:10 3,8 C 69 % 1022,9 hPa 0,0 l/m 0,0 km/h (0 Bft) SW 225 -1,4 C 0,0 C 0,0 km/h (0 Bft)
15.04.2014 14:15 3,8 C 69 % 1022,9 hPa 0,0 l/m 0,0 km/h (0 Bft) SW 225 -1,4 C 0,0 C 0,0 km/h (0 Bft)
15.04.2014 14:20 3,9 C 70 % 1022,9 hPa 0,0 l/m 0,0 km/h (0 Bft) SW 225 -1,1 C 0,0 C 0,0 km/h (0 Bft)
15.04.2014 14:25 4,3 C 70 % 1023,2 hPa 0,0 l/m 0,0 km/h (0 Bft) SW 225 -0,7 C 0,0 C 0,0 km/h (0 Bft)
15.04.2014 14:30 4,4 C 66 % 1023,2 hPa 0,0 l/m 0,0 km/h (0 Bft) SW 225 -1,4 C 0,0 C 0,0 km/h (0 Bft)
15.04.2014 14:35 4,4 C 65 % 1023,2 hPa 0,0 l/m 0,0 km/h (0 Bft) SW 225 -1,6 C 0,0 C 0,0 km/h (0 Bft)
15.04.2014 14:40 3,9 C 62 % 1023,2 hPa 0,0 l/m 0,0 km/h (0 Bft) SW 225 -2,7 C 0,0 C 0,0 km/h (0 Bft)
15.04.2014 14:45 3,8 C 61 % 1023,4 hPa 0,0 l/m 0,0 km/h (0 Bft) SW 225 -3,0 C 0,0 C 0,0 km/h (0 Bft)
15.04.2014 14:50 3,8 C 63 % 1023,4 hPa 0,0 l/m 0,0 km/h (0 Bft) SW 225 -2,6 C 0,0 C 0,0 km/h (0 Bft)
15.04.2014 14:55 4,1 C 66 % 1023,4 hPa 0,0 l/m 0,0 km/h (0 Bft) SW 225 -1,7 C 0,0 C 0,0 km/h (0 Bft)
15.04.2014 15:00 3,8 C 63 % 1023,4 hPa 0,0 l/m 0,0 km/h (0 Bft) SW 225 -2,6 C 0,0 C 0,0 km/h (0 Bft)
15.04.2014 15:05 3,8 C 63 % 1023,3 hPa 0,0 l/m 0,0 km/h (0 Bft) SW 225 -2,6 C 0,0 C 0,0 km/h (0 Bft)
15.04.2014 15:10 3,9 C 62 % 1023,3 hPa 0,0 l/m 0,0 km/h (0 Bft) SW 225 -2,7 C 0,0 C 0,0 km/h (0 Bft)
15.04.2014 15:15 4,6 C 62 % 1023,3 hPa 0,0 l/m 0,0 km/h (0 Bft) SW 225 -2,0 C 0,0 C 0,0 km/h (0 Bft)
15.04.2014 15:20 4,6 C 62 % 1023,3 hPa 0,0 l/m 0,0 km/h (0 Bft) SW 225 -2,0 C 0,0 C 0,0 km/h (0 Bft)
15.04.2014 15:25 5,1 C 59 % 1023,3 hPa 0,0 l/m 0,0 km/h (0 Bft) SW 225 -2,2 C 0,0 C 0,0 km/h (0 Bft)
15.04.2014 15:30 5,4 C 59 % 1023,3 hPa 0,0 l/m 0,0 km/h (0 Bft) SW 225 -2,0 C 0,0 C 0,0 km/h (0 Bft)
15.04.2014 15:35 5,4 C 59 % 1023,3 hPa 0,0 l/m 0,0 km/h (0 Bft) SW 225 -2,0 C 0,0 C 0,0 km/h (0 Bft)
15.04.2014 15:40 5,3 C 58 % 1023,3 hPa 0,0 l/m 0,0 km/h (0 Bft) SW 225 -2,3 C 0,0 C 0,0 km/h (0 Bft)
15.04.2014 15:45 5,1 C 58 % 1023,3 hPa 0,0 l/m 0,0 km/h (0 Bft) SW 225 -2,5 C 0,0 C 0,0 km/h (0 Bft)
15.04.2014 15:50 5,2 C 57 % 1023,5 hPa 0,0 l/m 0,0 km/h (0 Bft) SW 225 -2,6 C 0,0 C 0,0 km/h (0 Bft)
15.04.2014 15:55 5,0 C 57 % 1023,5 hPa 0,0 l/m 0,0 km/h (0 Bft) SW 225 -2,8 C 0,0 C 0,0 km/h (0 Bft)
15.04.2014 16:00 4,9 C 57 % 1023,5 hPa 0,0 l/m 0,0 km/h (0 Bft) SW 225 -2,9 C 0,0 C 0,0 km/h (0 Bft)
15.04.2014 16:03 5,3 C 56 % 1023,5 hPa 0,0 l/m 0,0 km/h (0 Bft) SW 225 -2,8 C 0,0 C 0,0 km/h (0 Bft)
15.04.2014 16:05 5,7 C 56 % 1023,4 hPa 0,0 l/m 0,0 km/h (0 Bft) SW 225 -2,4 C 0,0 C 0,0 km/h (0 Bft)
15.04.2014 16:10 6,3 C 53 % 1023,4 hPa 0,0 l/m 0,0 km/h (0 Bft) SW 225 -2,6 C 0,0 C 0,0 km/h (0 Bft)
15.04.2014 16:15 6,5 C 54 % 1023,4 hPa 0,0 l/m 0,0 km/h (0 Bft) SW 225 -2,1 C 0,0 C 0,0 km/h (0 Bft)
15.04.2014 16:20 6,0 C 54 % 1023,4 hPa 0,0 l/m 0,0 km/h (0 Bft) SW 225 -2,6 C 0,0 C 0,0 km/h (0 Bft)
15.04.2014 16:25 5,5 C 55 % 1023,4 hPa 0,0 l/m 0,0 km/h (0 Bft) SW 225 -2,8 C 0,0 C 0,0 km/h (0 Bft)
15.04.2014 16:30 5,5 C 55 % 1023,4 hPa 0,0 l/m 0,0 km/h (0 Bft) SW 225 -2,8 C 0,0 C 0,0 km/h (0 Bft)
15.04.2014 16:35 5,8 C 56 % 1023,4 hPa 0,0 l/m 0,0 km/h (0 Bft) SW 225 -2,3 C 0,0 C 0,0 km/h (0 Bft)
15.04.2014 16:40 6,8 C 53 % 1023,4 hPa 0,0 l/m 0,0 km/h (0 Bft) SW 225 -2,1 C 0,0 C 0,0 km/h (0 Bft)
15.04.2014 16:45 7,2 C 50 % 1023,1 hPa 0,0 l/m 0,0 km/h (0 Bft) SW 225 -2,5 C 0,0 C 0,0 km/h (0 Bft)
15.04.2014 16:50 6,7 C 50 % 1023,1 hPa 0,0 l/m 0,0 km/h (0 Bft) SW 225 -3,0 C 0,0 C 0,0 km/h (0 Bft)
15.04.2014 16:55 5,8 C 53 % 1023,1 hPa 0,0 l/m 0,0 km/h (0 Bft) SW 225 -3,0 C 0,0 C 0,0 km/h (0 Bft)
15.04.2014 17:00 5,5 C 53 % 1023,1 hPa 0,0 l/m 0,0 km/h (0 Bft) SW 225 -3,3 C 0,0 C 0,0 km/h (0 Bft)
15.04.2014 17:05 5,7 C 54 % 1023,1 hPa 0,0 l/m 0,0 km/h (0 Bft) SW 225 -2,9 C 0,0 C 0,0 km/h (0 Bft)
15.04.2014 17:10 5,6 C 53 % 1023,1 hPa 0,0 l/m 0,0 km/h (0 Bft) SW 225 -3,2 C 0,0 C 0,0 km/h (0 Bft)
15.04.2014 17:15 5,5 C 53 % 1023,1 hPa 0,0 l/m 0,0 km/h (0 Bft) SW 225 -3,3 C 0,0 C 0,0 km/h (0 Bft)
15.04.2014 17:20 5,3 C 53 % 1023,1 hPa 0,0 l/m 0,0 km/h (0 Bft) SW 225 -3,5 C 0,0 C 0,0 km/h (0 Bft)
15.04.2014 17:25 5,4 C 53 % 1023,1 hPa 0,0 l/m 0,0 km/h (0 Bft) SW 225 -3,4 C 0,0 C 0,0 km/h (0 Bft)
15.04.2014 17:30 5,1 C 53 % 1023,1 hPa 0,0 l/m 0,0 km/h (0 Bft) SW 225 -3,7 C 0,0 C 0,0 km/h (0 Bft)
15.04.2014 17:35 5,2 C 53 % 1023,1 hPa 0,0 l/m 0,0 km/h (0 Bft) SW 225 -3,6 C 0,0 C 0,0 km/h (0 Bft)
15.04.2014 17:40 5,1 C 53 % 1023,1 hPa 0,0 l/m 0,0 km/h (0 Bft) SW 225 -3,7 C 0,0 C 0,0 km/h (0 Bft)
15.04.2014 17:45 5,1 C 54 % 1023,1 hPa 0,0 l/m 0,0 km/h (0 Bft) SW 225 -3,4 C 0,0 C 0,0 km/h (0 Bft)
15.04.2014 17:50 5,0 C 55 % 1023,1 hPa 0,0 l/m 0,0 km/h (0 Bft) SW 225 -3,3 C 0,0 C 0,0 km/h (0 Bft)
15.04.2014 17:55 4,7 C 53 % 1023,1 hPa 0,0 l/m 0,0 km/h (0 Bft) SW 225 -4,0 C 0,0 C 0,0 km/h (0 Bft)
15.04.2014 18:00 4,6 C 55 % 1023,1 hPa 0,0 l/m 0,0 km/h (0 Bft) SW 225 -3,6 C 0,0 C 0,0 km/h (0 Bft)
15.04.2014 18:05 4,5 C 54 % 1022,6 hPa 0,0 l/m 0,0 km/h (0 Bft) SW 225 -4,0 C 0,0 C 0,0 km/h (0 Bft)
15.04.2014 18:10 4,6 C 55 % 1022,6 hPa 0,0 l/m 0,0 km/h (0 Bft) SW 225 -3,6 C 0,0 C 0,0 km/h (0 Bft)
15.04.2014 18:15 4,5 C 55 % 1022,6 hPa 0,0 l/m 0,0 km/h (0 Bft) SW 225 -3,7 C 0,0 C 0,0 km/h (0 Bft)
15.04.2014 18:20 4,5 C 56 % 1022,6 hPa 0,0 l/m 0,0 km/h (0 Bft) SW 225 -3,5 C 0,0 C 0,0 km/h (0 Bft)
15.04.2014 18:25 4,3 C 55 % 1022,5 hPa 0,0 l/m 0,0 km/h (0 Bft) SW 225 -3,9 C 0,0 C 0,0 km/h (0 Bft)
15.04.2014 18:30 4,2 C 56 % 1022,5 hPa 0,0 l/m 0,0 km/h (0 Bft) SW 225 -3,8 C 0,0 C 0,0 km/h (0 Bft)
15.04.2014 18:35 4,2 C 56 % 1022,5 hPa 0,0 l/m 0,0 km/h (0 Bft) SW 225 -3,8 C 0,0 C 0,0 km/h (0 Bft)
15.04.2014 18:40 4,0 C 54 % 1022,5 hPa 0,0 l/m 0,0 km/h (0 Bft) SW 225 -4,4 C 0,0 C 0,0 km/h (0 Bft)
15.04.2014 18:45 4,0 C 55 % 1022,3 hPa 0,0 l/m 0,0 km/h (0 Bft) SW 225 -4,2 C 0,0 C 0,0 km/h (0 Bft)
15.04.2014 18:50 3,9 C 56 % 1022,3 hPa 0,0 l/m 0,0 km/h (0 Bft) SW 225 -4,1 C 0,0 C 0,0 km/h (0 Bft)
15.04.2014 18:55 3,8 C 57 % 1022,3 hPa 0,0 l/m 0,0 km/h (0 Bft) SW 225 -3,9 C 0,0 C 0,0 km/h (0 Bft)
15.04.2014 19:00 3,7 C 57 % 1022,3 hPa 0,0 l/m 0,0 km/h (0 Bft) SW 225 -4,0 C 0,0 C 0,0 km/h (0 Bft)
15.04.2014 19:05 3,6 C 57 % 1022,5 hPa 0,0 l/m 0,0 km/h (0 Bft) SW 225 -4,1 C 0,0 C 0,0 km/h (0 Bft)
15.04.2014 19:10 3,3 C 57 % 1022,5 hPa 0,0 l/m 0,0 km/h (0 Bft) SW 225 -4,4 C 0,0 C 0,0 km/h (0 Bft)
15.04.2014 19:15 3,3 C 57 % 1022,5 hPa 0,0 l/m 0,0 km/h (0 Bft) SW 225 -4,4 C 0,0 C 0,0 km/h (0 Bft)
15.04.2014 19:20 3,2 C 58 % 1022,5 hPa 0,0 l/m 0,0 km/h (0 Bft) SW 225 -4,3 C 0,0 C 0,0 km/h (0 Bft)
15.04.2014 19:25 3,2 C 58 % 1022,6 hPa 0,0 l/m 0,0 km/h (0 Bft) SW 225 -4,3 C 0,0 C 0,0 km/h (0 Bft)
15.04.2014 19:30 3,0 C 58 % 1022,6 hPa 0,0 l/m 0,0 km/h (0 Bft) SW 225 -4,4 C 0,0 C 0,0 km/h (0 Bft)
15.04.2014 19:35 2,9 C 58 % 1022,6 hPa 0,0 l/m 0,0 km/h (0 Bft) SW 225 -4,5 C 0,0 C 0,0 km/h (0 Bft)
15.04.2014 19:40 2,8 C 59 % 1022,6 hPa 0,0 l/m 0,0 km/h (0 Bft) SW 225 -4,4 C 0,0 C 0,0 km/h (0 Bft)
15.04.2014 19:45 2,8 C 59 % 1022,8 hPa 0,0 l/m 0,0 km/h (0 Bft) SW 225 -4,4 C 0,0 C 0,0 km/h (0 Bft)
15.04.2014 19:50 2,7 C 59 % 1022,8 hPa 0,0 l/m 0,0 km/h (0 Bft) SW 225 -4,5 C 0,0 C 0,0 km/h (0 Bft)
15.04.2014 19:55 2,6 C 59 % 1022,8 hPa 0,0 l/m 0,0 km/h (0 Bft) SW 225 -4,6 C 0,0 C 0,0 km/h (0 Bft)
15.04.2014 20:00 2,5 C 59 % 1022,8 hPa 0,0 l/m 0,0 km/h (0 Bft) SW 225 -4,7 C 0,0 C 0,0 km/h (0 Bft)
15.04.2014 20:05 2,4 C 59 % 1022,9 hPa 0,0 l/m 0,0 km/h (0 Bft) SW 225 -4,8 C 0,0 C 0,0 km/h (0 Bft)
15.04.2014 20:10 2,3 C 59 % 1022,9 hPa 0,0 l/m 0,0 km/h (0 Bft) SW 225 -4,9 C 0,0 C 0,0 km/h (0 Bft)
15.04.2014 20:15 2,2 C 59 % 1022,9 hPa 0,0 l/m 0,0 km/h (0 Bft) SW 225 -5,0 C 0,0 C 0,0 km/h (0 Bft)
15.04.2014 20:20 2,2 C 60 % 1022,9 hPa 0,0 l/m 0,0 km/h (0 Bft) SW 225 -4,7 C 0,0 C 0,0 km/h (0 Bft)
15.04.2014 20:25 2,2 C 60 % 1022,9 hPa 0,0 l/m 0,0 km/h (0 Bft) SW 225 -4,7 C 0,0 C 0,0 km/h (0 Bft)
15.04.2014 20:30 2,1 C 61 % 1022,9 hPa 0,0 l/m 0,0 km/h (0 Bft) SW 225 -4,6 C 0,0 C 0,0 km/h (0 Bft)
15.04.2014 20:35 2,1 C 62 % 1022,9 hPa 0,0 l/m 0,0 km/h (0 Bft) SW 225 -4,4 C 0,0 C 0,0 km/h (0 Bft)
15.04.2014 20:40 2,0 C 62 % 1022,9 hPa 0,0 l/m 0,0 km/h (0 Bft) SW 225 -4,5 C 0,0 C 0,0 km/h (0 Bft)
15.04.2014 20:45 1,9 C 63 % 1022,9 hPa 0,0 l/m 0,0 km/h (0 Bft) SW 225 -4,4 C 0,0 C 0,0 km/h (0 Bft)
15.04.2014 20:50 1,9 C 63 % 1022,9 hPa 0,0 l/m 0,0 km/h (0 Bft) SW 225 -4,4 C 0,0 C 0,0 km/h (0 Bft)
15.04.2014 20:55 1,9 C 64 % 1022,9 hPa 0,0 l/m 0,0 km/h (0 Bft) SW 225 -4,2 C 0,0 C 0,0 km/h (0 Bft)
15.04.2014 21:00 1,8 C 65 % 1022,9 hPa 0,0 l/m 0,0 km/h (0 Bft) SW 225 -4,1 C 0,0 C 0,0 km/h (0 Bft)
15.04.2014 21:03 1,7 C 66 % 1022,9 hPa 0,0 l/m 0,0 km/h (0 Bft) SW 225 -4,0 C 0,0 C 0,0 km/h (0 Bft)
15.04.2014 21:05 1,7 C 66 % 1023,1 hPa 0,0 l/m 0,0 km/h (0 Bft) SW 225 -4,0 C 0,0 C 0,0 km/h (0 Bft)
15.04.2014 21:15 1,5 C 68 % 1023,1 hPa 0,0 l/m 0,0 km/h (0 Bft) SW 225 -3,7 C 0,0 C 0,0 km/h (0 Bft)
15.04.2014 21:20 1,4 C 69 % 1023,1 hPa 0,0 l/m 0,0 km/h (0 Bft) SW 225 -3,7 C 0,0 C 0,0 km/h (0 Bft)
15.04.2014 21:25 1,4 C 71 % 1023,2 hPa 0,0 l/m 0,0 km/h (0 Bft) SW 225 -3,3 C 0,0 C 0,0 km/h (0 Bft)
15.04.2014 21:30 1,3 C 72 % 1023,2 hPa 0,0 l/m 0,0 km/h (0 Bft) SW 225 -3,2 C 0,0 C 0,0 km/h (0 Bft)
15.04.2014 21:35 1,3 C 72 % 1023,2 hPa 0,0 l/m 0,0 km/h (0 Bft) SW 225 -3,2 C 0,0 C 0,0 km/h (0 Bft)
15.04.2014 21:40 1,3 C 73 % 1023,2 hPa 0,0 l/m 0,0 km/h (0 Bft) SW 225 -3,0 C 0,0 C 0,0 km/h (0 Bft)
15.04.2014 21:45 1,2 C 73 % 1023,1 hPa 0,0 l/m 0,0 km/h (0 Bft) SW 225 -3,1 C 0,0 C 0,0 km/h (0 Bft)
15.04.2014 21:50 1,2 C 73 % 1023,1 hPa 0,0 l/m 0,0 km/h (0 Bft) SW 225 -3,1 C 0,0 C 0,0 km/h (0 Bft)
15.04.2014 21:55 1,2 C 74 % 1023,1 hPa 0,0 l/m 0,0 km/h (0 Bft) SW 225 -2,9 C 0,0 C 0,0 km/h (0 Bft)
15.04.2014 22:00 1,2 C 74 % 1023,1 hPa 0,0 l/m 0,0 km/h (0 Bft) SW 225 -2,9 C 0,0 C 0,0 km/h (0 Bft)
15.04.2014 22:05 1,2 C 75 % 1023,2 hPa 0,0 l/m 0,0 km/h (0 Bft) SW 225 -2,7 C 0,0 C 0,0 km/h (0 Bft)
15.04.2014 22:10 1,1 C 75 % 1023,2 hPa 0,0 l/m 0,0 km/h (0 Bft) SW 225 -2,8 C 0,0 C 0,0 km/h (0 Bft)
15.04.2014 22:15 1,1 C 75 % 1023,2 hPa 0,0 l/m 0,0 km/h (0 Bft) SW 225 -2,8 C 0,0 C 0,0 km/h (0 Bft)
15.04.2014 22:20 1,1 C 75 % 1023,2 hPa 0,0 l/m 0,0 km/h (0 Bft) SW 225 -2,8 C 0,0 C 0,0 km/h (0 Bft)
15.04.2014 22:25 1,0 C 75 % 1023,1 hPa 0,0 l/m 0,0 km/h (0 Bft) SW 225 -2,9 C 0,0 C 0,0 km/h (0 Bft)
15.04.2014 22:30 1,0 C 76 % 1023,1 hPa 0,0 l/m 0,0 km/h (0 Bft) SW 225 -2,7 C 0,0 C 0,0 km/h (0 Bft)
15.04.2014 22:35 1,1 C 76 % 1023,1 hPa 0,0 l/m 0,0 km/h (0 Bft) SW 225 -2,6 C 0,0 C 0,0 km/h (0 Bft)
15.04.2014 22:40 1,1 C 76 % 1023,1 hPa 0,0 l/m 0,0 km/h (0 Bft) SW 225 -2,6 C 0,0 C 0,0 km/h (0 Bft)
15.04.2014 22:45 1,1 C 76 % 1023,3 hPa 0,0 l/m 0,0 km/h (0 Bft) SW 225 -2,6 C 0,0 C 0,0 km/h (0 Bft)
15.04.2014 22:50 1,1 C 76 % 1023,3 hPa 0,0 l/m 0,0 km/h (0 Bft) SW 225 -2,6 C 0,0 C 0,0 km/h (0 Bft)
15.04.2014 22:55 1,1 C 77 % 1023,3 hPa 0,0 l/m 0,0 km/h (0 Bft) SW 225 -2,5 C 0,0 C 0,0 km/h (0 Bft)
15.04.2014 23:00 1,0 C 77 % 1023,3 hPa 0,0 l/m 0,0 km/h (0 Bft) SW 225 -2,6 C 0,0 C 0,0 km/h (0 Bft)
15.04.2014 23:05 1,0 C 77 % 1023,2 hPa 0,0 l/m 0,0 km/h (0 Bft) SW 225 -2,6 C 0,0 C 0,0 km/h (0 Bft)
15.04.2014 23:10 1,0 C 78 % 1023,2 hPa 0,0 l/m 0,0 km/h (0 Bft) SW 225 -2,4 C 0,0 C 0,0 km/h (0 Bft)
15.04.2014 23:15 1,1 C 77 % 1023,2 hPa 0,0 l/m 0,0 km/h (0 Bft) SW 225 -2,5 C 0,0 C 0,0 km/h (0 Bft)
15.04.2014 23:20 1,1 C 77 % 1023,2 hPa 0,0 l/m 0,0 km/h (0 Bft) SW 225 -2,5 C 0,0 C 0,0 km/h (0 Bft)
15.04.2014 23:25 1,1 C 77 % 1023,2 hPa 0,0 l/m 0,0 km/h (0 Bft) SW 225 -2,5 C 0,0 C 0,0 km/h (0 Bft)
15.04.2014 23:30 1,1 C 77 % 1023,2 hPa 0,0 l/m 0,0 km/h (0 Bft) SW 225 -2,5 C 0,0 C 0,0 km/h (0 Bft)
15.04.2014 23:35 1,2 C 77 % 1023,2 hPa 0,0 l/m 0,0 km/h (0 Bft) SW 225 -2,4 C 0,0 C 0,0 km/h (0 Bft)
15.04.2014 23:40 1,2 C 77 % 1023,2 hPa 0,0 l/m 0,0 km/h (0 Bft) SW 225 -2,4 C 0,0 C 0,0 km/h (0 Bft)
15.04.2014 23:45 1,2 C 77 % 1023,3 hPa 0,0 l/m 0,0 km/h (0 Bft) SW 225 -2,4 C 0,0 C 0,0 km/h (0 Bft)
15.04.2014 23:50 1,2 C 77 % 1023,3 hPa 0,0 l/m 0,0 km/h (0 Bft) SW 225 -2,4 C 0,0 C 0,0 km/h (0 Bft)
15.04.2014 23:55 1,1 C 77 % 1023,3 hPa 0,0 l/m 0,0 km/h (0 Bft) SW 225 -2,5 C 0,0 C 0,0 km/h (0 Bft)
_ Min-Zeit 06:20 16:50 02:20 - 23:55 - - 20:15 23:55 23:55
Minimum _ -0,9 C 50 % 1018,4 hPa - 0,0 km/h (0 Bft) - - -5,0 C 0,0 C 0,0 km/h (0 Bft)
_ Max-Zeit 16:45 05:20 16:03 23:55 23:55 - - 09:35 23:55 23:55
Maximum _ 7,2 C 96 % 1023,5 hPa 0,0 l/m 0,0 km/h
SW (0 Bft)
- - 4,9 C 0,0 C 0,0 km/h
SW (0 Bft)
Durchschnitt _ 2,2 C 79 % 1021,7 hPa #0,0 l/m 0,0 km/h (0 Bft) - - - -1,4 C 0,0 C 0,0 km/h (0 Bft)